User: anonymous   Login
Location: �quirre
(50.4736°N, 2.2351°E)
Time: 20:29:36
(UTC+00:00)
Language:

Cosmos 724 - Orbit

View from above orbital plane
View from above orbital plane
View from above satellite
View from above satellite

Ground track
Ground track

The orbit data is extracted from the following two-line orbital elements,

1  7727U 75025A   20304.26823017 -.00000067 +00000-0 +14177-4 0  9998
2  7727 065.5912 357.1042 0060663 337.2975 022.5416 13.98926073328092
Epoch (UTC): 30 October 2020 06:26:15
Eccentricity: 0.0060663
inclination: 65.5912°
perigee height: 853 km
apogee height: 941 km
right ascension of ascending node: 357.1042°
argument of perigee: 337.2975°
revolutions per day: 13.98926073
mean anomaly at epoch: 22.5416°
orbit number at epoch: 32809

The dashed part of the orbit path shows where the satellite is in the earth's shadow,  

DLR